Regional Weather Roundup
Issued by NWS Charleston, WV

Home | Current Version | Previous Version | Text Only | Print | Product List | Glossary Off
Versions: 1 2 3 4 5 6 7 8 9 10 11 12 13 14 15 16 17 18 19 20 21 22 23 24 25 26 27 28 29 30 31 32 33 34 35 36 37 38 39 40 41 42 43 44 45 46 47 48 49 50

000
ASUS41 KRLX 260910
RWRRLX
West Virginia Regional Weather Roundup
National Weather Service Charleston WV
400 AM EST FRI DEC 26 2014

Note: "fair" indicates few or no clouds below 12,000 feet with no
significant weather and/or obstructions to visibility.

WVZ003-261000-
Northern Panhandle of West Virginia

CITY           SKY/WX    TMP DP  RH WIND       PRES   REMARKS
WHEELING       CLEAR     33  27  78 S6        30.22S
$$

WVZ009-261000-
Northwest West Virginia

CITY           SKY/WX    TMP DP  RH WIND       PRES   REMARKS
PARKERSBURG    CLEAR     28  25  88 CALM      30.27S
$$

WVZ006-261000-
Western West Virginia

CITY           SKY/WX    TMP DP  RH WIND       PRES   REMARKS
HUNTINGTON     CLEAR     27  26  96 CALM      30.23S
$$

WVZ015-261000-
West Central West Virginia

CITY           SKY/WX    TMP DP  RH WIND       PRES   REMARKS
CHARLESTON     CLEAR     27  25  92 CALM      30.25R
$$

WVZ022-031-261000-
North Central West Virginia

CITY           SKY/WX    TMP DP  RH WIND       PRES   REMARKS
CLARKSBURG     CLEAR     30  28  92 CALM      30.24R
MORGANTOWN     CLEAR     33  25  72 S3        30.25R
$$

WVZ025-035-042-045-261000-
Southern West Virginia

CITY           SKY/WX    TMP DP  RH WIND       PRES   REMARKS
BECKLEY        CLEAR     31  26  82 S5        30.22F
LOGAN            N/A     36  30  80 CALM      30.23F
BLUEFIELD      CLEAR     36  23  59 SW5       30.21F
LEWISBURG      PTCLDY    26  25  94 CALM      30.25F
$$

WVZ047-261000-
Northern Mountains of West Virginia

CITY           SKY/WX    TMP DP  RH WIND       PRES   REMARKS
ELKINS         CLEAR     24  24 100 CALM      30.24R
$$

WVZ052-261000-
Eastern Panhandle of West Virginia

CITY           SKY/WX    TMP DP  RH WIND       PRES   REMARKS
MARTINSBURG    CLEAR     33  25  72 W9        30.24R
PETERSBURG     CLEAR     24  24  99 CALM      30.26R
$$



USA.gov is the U.S. government's official web portal to all federal, state and local government web resources and services.